[[{"header":{"parameterUnit":"m.s-1","parameterCategory":1,"la1":30.2991,"la2":30.254,"lo1":-89.0895,"lo2":-89.0444,"dy":0.0017,"dx":0.0017,"nx":28,"ny":28,"refTime":"2024-04-09T21:00:00:Z","depth":0,"parameterNumber":2,"parameterNumberName":"U-component_of_WINDS"},"data":[0,0,0,0,0,0,0,0,0,0,0,0,0,0,0,0,0,0,0,0,0,0,0,0,0,0,0,0,0,0,0,0,0,0,0,0,0,0,0,0,0,0,0,0,0,0,0,0,0,0,0,0,0,0,0,0,0,0,6.6894,6.6894,0,6.6839,6.6838,6.6837,6.6664,6.666,6.6656,6.6653,6.66,6.6602,6.6604,0,0,0,0,0,0,0,0,0,0,0,0,0,6.6853,6.6855,6.6894,6.6894,6.6893,6.6839,6.6838,6.6837,6.6665,6.666,6.6655,6.6651,6.6599,6.6602,6.6604,0,0,0,0,0,0,0,0,0,0,0,0,0,6.6842,6.6855,6.6894,6.68,6.6791,6.6839,6.6838,6.6837,6.6666,6.666,6.6654,6.6649,6.6598,6.6601,6.6605,6.6741,0,0,6.6615,6.6616,0,0,0,0,0,0,0,0,6.6843,6.6844,6.6815,6.6807,6.6797,6.6752,6.6804,6.6805,6.6667,6.6713,6.6652,6.6646,6.6655,6.6654,6.6656,6.6738,6.6736,6.6615,6.6617,6.6618,6.6619,0,0,0,0,0,0,0,6.6844,6.6845,6.6872,6.6814,6.6803,6.6761,6.6753,6.6803,6.6718,6.6709,6.6696,6.6692,6.6649,6.6653,6.6654,6.6735,6.6615,6.6618,6.662,6.6621,6.6924,6.693,0,0,0,0,0,0,6.6858,6.6847,6.6874,6.6871,6.6806,6.6767,6.6758,6.6772,6.6717,6.6702,6.6697,6.6684,6.6651,6.665,6.6651,6.6805,6.6618,6.6621,6.6623,6.6918,6.6926,6.6932,0,0,0,0,0,0,6.6857,6.6862,6.6876,6.6855,6.6854,6.6774,6.6791,6.6774,6.6778,6.6707,6.6691,6.6716,6.6646,6.6646,6.6719,6.6801,6.6623,6.6626,6.6911,6.692,6.6929,6.7115,0,0,0,0,0,0,6.6857,6.6863,6.6913,6.6858,6.6856,6.6945,6.6796,6.6777,6.6784,6.6766,6.6721,6.6709,6.6641,6.6715,6.6722,6.6802,6.6628,6.6903,6.6915,6.6926,6.7101,6.7129,6.7154,0,0,0,0,0,6.6856,6.6969,6.6916,6.6921,6.6917,6.695,6.6949,6.6868,6.6791,6.6841,6.6795,6.671,6.6791,6.6724,6.6731,6.6813,6.6898,6.6912,6.6925,6.7089,6.7124,6.7153,0,0,0,0,0,0,6.7038,6.696,6.6901,6.6999,6.6982,6.692,6.6981,6.6908,6.6913,6.6897,6.6798,6.6789,6.6876,6.6851,6.6778,6.694,6.683,6.6846,6.6953,6.6985,6.7011,6.7014,6.6631,0,0,0,0,0,6.7089,6.7121,6.7052,6.7145,6.714,6.7063,6.7074,6.7013,6.6992,6.6985,6.6944,6.6929,6.695,6.6966,6.6982,6.7097,6.7084,6.7157,6.7183,6.7205,6.7219,6.7277,6.7308,6.6977,6.6977,6.6977,0,0,6.7195,6.7157,6.7184,6.7181,6.716,6.7197,6.7058,6.7102,6.7128,6.6992,6.7057,6.7027,6.7003,6.7097,6.7136,6.7079,6.7308,6.7223,6.724,6.7243,6.7294,6.7326,6.7353,6.6986,6.6985,6.6983,0,0,6.7407,6.7382,6.7456,6.7438,6.7408,6.7356,6.7374,6.7324,6.7298,6.7362,6.7259,6.729,6.7329,6.7315,6.7314,6.752,6.7441,6.7529,6.7665,6.7722,6.7748,6.777,6.7843,6.787,6.7543,6.7544,6.7544,0,6.7544,6.7593,6.7504,6.7554,6.7555,6.7432,6.7506,6.7494,6.7472,6.7477,6.7413,6.7458,6.7434,6.7522,6.7572,6.7576,6.7593,6.7532,6.7751,6.7773,6.7793,6.786,6.7888,6.7554,6.7553,6.7552,6.7551,0,6.7761,6.7797,6.786,6.784,6.7849,6.7912,6.7832,6.7852,6.7791,6.7746,6.7812,6.7778,6.7784,6.78,6.7742,6.7881,6.7846,6.7769,6.7655,6.7836,6.7898,6.7923,6.757,6.7566,6.7563,6.756,0,0,6.8085,6.8014,6.8039,6.8027,6.7985,6.8012,6.8069,6.8073,6.8091,6.8081,6.8126,6.8162,6.809,6.8088,6.8027,6.8078,6.8241,6.7993,6.7991,6.8039,6.839,6.8447,6.8479,6.819,6.8194,6.8198,6.8392,0,6.8284,6.8375,6.8296,6.8403,6.8434,6.8318,6.8367,6.8348,6.8307,6.8329,6.8284,6.8311,6.8214,6.8212,6.8257,6.8212,6.831,6.8197,6.823,6.8232,6.8238,6.8511,6.8572,6.8756,6.8415,6.8419,6.8422,0,6.8529,6.8527,6.8636,6.8585,6.8596,6.8641,6.8638,6.8661,6.8636,6.8603,6.8601,6.8526,6.8578,6.8469,6.854,6.8465,6.8474,6.8455,6.846,6.8458,6.8337,6.8516,6.8813,6.8841,6.846,6.8457,6.8454,0,6.8752,6.8777,6.8845,6.8839,6.8783,6.8817,6.8796,6.8765,6.8772,6.8771,6.8774,6.878,6.8783,6.8789,6.8717,6.8645,6.8798,6.8682,6.8771,6.8773,6.8807,6.8806,6.9109,6.8817,6.8817,6.8816,6.8816,0,6.8981,6.9052,6.8944,6.8986,6.9061,6.8971,6.9049,6.9015,6.8989,6.9023,6.8924,6.8958,6.8862,6.8886,6.8831,6.8898,6.89,6.8875,6.8859,6.8883,6.8886,6.8886,6.887,6.8823,6.8822,6.882,6.8819,0,6.9243,6.9173,6.9239,6.9179,6.9166,6.9225,6.9174,6.9211,6.9163,6.9207,6.9212,6.9139,6.9162,6.9092,6.9105,6.9067,6.9164,6.9128,6.9172,6.916,6.9252,6.9244,6.9564,6.9601,6.9288,6.9291,6.9294,0,6.9393,6.9444,6.9389,6.9404,6.9387,6.9412,6.9418,6.9331,6.9342,6.9317,6.9357,6.9372,6.9378,6.9422,6.937,6.9379,6.9342,6.9454,6.9342,6.9364,6.9341,6.9338,6.9342,6.9476,6.948,6.9483,6.9486,0,6.9666,6.9628,6.964,6.964,6.965,6.9646,6.9636,6.9654,6.9561,6.9578,6.96,6.9605,6.9617,6.9633,6.9631,6.9609,6.9533,6.9521,6.9542,6.9565,6.9587,6.9575,6.9232,6.9514,6.9511,6.9509,6.9507,6.9506,6.9874,6.9913,6.988,6.9897,6.988,6.9872,6.9902,6.9859,6.9874,6.9876,6.9824,6.9856,6.983,6.9819,6.9805,6.9829,6.9778,6.9809,6.9816,6.9824,6.9839,6.9586,6.9829,6.9828,6.9828,6.9827,6.9826,0,7.014,7.0112,7.0128,7.0116,7.0129,7.0054,7.0039,7.0055,7.0084,7.0065,7.0073,7.0098,7.0112,7.0062,7.007,7.0099,7.0064,7.0104,7.0099,7.0095,6.9885,6.9866,7.0132,7.0132,7.0132,7.0131,7.0131,7.0131,7.0279,7.0341,7.03,7.0353,7.0325,7.0354,7.0351,7.0344,7.0328,7.0359,7.037,7.0337,7.0305,7.031,7.032,7.0305,7.0311,7.0363,7.0336,7.014,7.0111,7.0082,7.0063,7.0366,7.0366,7.0544,7.0545,7.0547]},{"header":{"parameterUnit":"m.s-1","parameterCategory":1,"la1":30.2991,"la2":30.254,"lo1":-89.0895,"lo2":-89.0444,"dy":0.0017,"dx":0.0017,"nx":28,"ny":28,"refTime":"2024-04-09T21:00:00:Z","depth":0,"parameterNumber":3,"parameterNumberName":"V-component_of_WINDS"},"data":[0,0,0,0,0,0,0,0,0,0,0,0,0,0,0,0,0,0,0,0,0,0,0,0,0,0,0,0,0,0,0,0,0,0,0,0,0,0,0,0,0,0,0,0,0,0,0,0,0,0,0,0,0,0,0,0,0,0,3.3388,3.3389,0,3.3487,3.3488,3.3489,3.3488,3.3487,3.3486,3.3484,3.3585,3.3589,3.3593,0,0,0,0,0,0,0,0,0,0,0,0,0,3.3198,3.3201,3.3388,3.3389,3.3391,3.3487,3.3488,3.3489,3.3488,3.3487,3.3485,3.3484,3.3584,3.3589,3.3593,0,0,0,0,0,0,0,0,0,0,0,0,0,3.3287,3.3202,3.3388,3.3402,3.3404,3.3486,3.3488,3.349,3.3489,3.3487,3.3485,3.3483,3.3582,3.3588,3.3594,3.3669,0,0,3.3612,3.3614,0,0,0,0,0,0,0,0,3.3282,3.3294,3.3398,3.3401,3.3404,3.3473,3.3458,3.355,3.3489,3.3457,3.3484,3.3482,3.355,3.3558,3.3581,3.3674,3.3678,3.3612,3.3616,3.3618,3.362,0,0,0,0,0,0,0,3.3276,3.3289,3.3427,3.34,3.3403,3.3402,3.3413,3.3475,3.3513,3.3459,3.3459,3.3471,3.3551,3.3575,3.3583,3.368,3.3612,3.3617,3.3621,3.3623,3.3839,3.3841,0,0,0,0,0,0,3.3267,3.3284,3.3424,3.343,3.3337,3.3408,3.3419,3.3453,3.3512,3.3519,3.3473,3.3471,3.3566,3.3576,3.3587,3.3678,3.3618,3.3624,3.3627,3.3836,3.3839,3.3841,0,0,0,0,0,0,3.3263,3.3279,3.342,3.3357,3.3375,3.3413,3.3451,3.3456,3.348,3.3522,3.3529,3.3491,3.3565,3.3578,3.3648,3.3682,3.3627,3.3632,3.3834,3.3837,3.384,3.3863,0,0,0,0,0,0,3.3257,3.3278,3.3307,3.3358,3.3379,3.3481,3.3453,3.3459,3.3491,3.3489,3.3541,3.3548,3.3564,3.364,3.3654,3.3689,3.3636,3.3831,3.3835,3.3839,3.3859,3.3866,3.3872,0,0,0,0,0,3.325,3.331,3.3309,3.3325,3.3416,3.3483,3.3494,3.3512,3.3493,3.3523,3.3549,3.3546,3.3676,3.3647,3.3663,3.37,3.3829,3.3834,3.3839,3.3856,3.3865,3.3872,0,0,0,0,0,0,3.3262,3.3317,3.3316,3.3394,3.3434,3.3482,3.352,3.3521,3.3567,3.3564,3.3583,3.3595,3.3665,3.369,3.3657,3.3776,3.375,3.3758,3.3757,3.3766,3.3773,3.3765,3.3641,0,0,0,0,0,3.3273,3.3323,3.3368,3.3432,3.3452,3.3483,3.3512,3.3522,3.3564,3.3581,3.3613,3.3654,3.3703,3.3736,3.3784,3.3862,3.3873,3.3895,3.3902,3.3907,3.3915,3.3957,3.3967,3.3858,3.3858,3.3858,0,0,3.3298,3.3334,3.3364,3.3435,3.3468,3.3518,3.3497,3.3552,3.3589,3.359,3.3658,3.3682,3.3729,3.3803,3.3837,3.3826,3.3947,3.3914,3.3917,3.3922,3.3963,3.3973,3.3983,3.3861,3.386,3.386,0,0,3.3369,3.3401,3.3458,3.349,3.3539,3.3558,3.3572,3.362,3.3637,3.3705,3.3706,3.3751,3.3836,3.3869,3.3897,3.3978,3.3977,3.3993,3.4028,3.4069,3.4078,3.4086,3.4115,3.4125,3.4,3.4,3.4,0,3.3393,3.347,3.3487,3.3542,3.3573,3.3575,3.3632,3.3662,3.3724,3.3745,3.3731,3.3837,3.3869,3.395,3.397,3.3992,3.4008,3.3988,3.4075,3.4083,3.4091,3.4119,3.4129,3.4002,3.4002,3.4002,3.4001,0,3.3497,3.355,3.359,3.3649,3.3685,3.374,3.3765,3.3799,3.3805,3.3826,3.3895,3.3933,3.3988,3.4008,3.4015,3.409,3.4082,3.4071,3.4046,3.4103,3.4129,3.414,3.4004,3.4004,3.4003,3.4003,0,0,3.3579,3.3646,3.3661,3.3687,3.374,3.3781,3.3836,3.389,3.3919,3.396,3.4007,3.4078,3.4069,3.41,3.4111,3.4147,3.4208,3.4132,3.4133,3.4145,3.4293,3.4301,3.4313,3.4207,3.4209,3.4211,3.4289,0,3.3656,3.3754,3.3771,3.3857,3.3905,3.3907,3.3955,3.3992,3.4013,3.4057,3.4079,3.413,3.4113,3.4132,3.4168,3.4193,3.4238,3.4188,3.4251,3.4253,3.424,3.4327,3.4335,3.4407,3.4299,3.4301,3.4302,0,3.3758,3.3803,3.3894,3.3939,3.396,3.4003,3.4053,3.4095,3.4137,3.4149,3.4184,3.419,3.4247,3.4218,3.4296,3.4261,3.4287,3.4304,3.4307,3.4314,3.4282,3.4336,3.4431,3.4442,3.4319,3.4318,3.4316,0,3.3809,3.3891,3.3957,3.3979,3.4034,3.4064,3.4088,3.4128,3.4159,3.4202,3.4222,3.4272,3.4299,3.4337,3.4356,3.4333,3.4432,3.4405,3.4444,3.4444,3.4466,3.4464,3.4566,3.4482,3.4482,3.4482,3.4481,0,3.3893,3.3949,3.398,3.402,3.4082,3.4099,3.416,3.4183,3.4219,3.4263,3.4267,3.4308,3.433,3.4374,3.4389,3.4451,3.4464,3.4475,3.4478,3.4475,3.4474,3.4493,3.4489,3.4484,3.4484,3.4483,3.4483,0,3.3961,3.3984,3.4055,3.41,3.4113,3.4157,3.4195,3.4234,3.4253,3.4309,3.4323,3.4354,3.4406,3.4429,3.4493,3.4503,3.4574,3.4573,3.456,3.4561,3.4598,3.4595,3.4717,3.4734,3.4638,3.4639,3.464,0,3.4013,3.4056,3.4105,3.4135,3.416,3.4208,3.424,3.4258,3.4291,3.4341,3.4373,3.4425,3.4468,3.4551,3.4579,3.4628,3.4629,3.4668,3.4636,3.4631,3.463,3.4627,3.4631,3.4674,3.4675,3.4676,3.4677,0,3.4103,3.4112,3.4158,3.4207,3.4244,3.4284,3.4322,3.4346,3.437,3.4407,3.446,3.4493,3.4558,3.461,3.466,3.4684,3.4685,3.4686,3.4698,3.4695,3.4685,3.4691,3.4576,3.4684,3.4683,3.4682,3.4682,3.4682,3.4165,3.4203,3.4243,3.4293,3.4324,3.436,3.4398,3.4422,3.4467,3.4522,3.4529,3.4586,3.4626,3.4693,3.4719,3.4764,3.4754,3.4771,3.4775,3.4779,3.4781,3.4678,3.4773,3.4773,3.4772,3.4772,3.4772,0,3.4255,3.4281,3.4327,3.4381,3.442,3.4416,3.4458,3.4491,3.4541,3.4578,3.462,3.4681,3.473,3.4762,3.4812,3.4841,3.4842,3.4854,3.4852,3.4857,3.4787,3.4772,3.4852,3.4852,3.4852,3.4852,3.4852,3.4851,3.4307,3.437,3.4384,3.4463,3.4488,3.4544,3.4568,3.4601,3.463,3.4698,3.4739,3.4759,3.4794,3.4846,3.4891,3.4899,3.4917,3.4929,3.4936,3.4871,3.4862,3.4854,3.4841,3.4933,3.4933,3.5003,3.5003,3.5004]}]]